Simultaneous Nadir Overpasses (SNOs) Predictions

Prediction of SNOs between NOAA-15 and METOP-C Satellite Orbit:

Table of predicted SNOs for the next 14.0 days since TLE Epoch: 12/6/2019
Index Date (NOAA-15) Time (NOAA-15) Lat,Lon (NOAA-15) SZA (NOAA-15 ) Date (METOP-C) Time (METOP-C) Lat,Lon (METOP-C) SZA (METOP-C ) Distance(km) Time Diff (sec)
1 12/14/2019 15:30:08 80.88, -18.31 105.67 12/14/2019 15:28:57 80.90, -18.21 105.66 2.15 71
2 12/14/2019 16:20:40 -80.89, 148.89 74.34 12/14/2019 16:19:38 -80.88, 148.87 74.38 1.08 62
3 12/14/2019 17:11:11 80.89, -43.71 105.66 12/14/2019 17:10:19 80.89, -43.72 105.64 0.36 52
4 12/14/2019 18:01:42 -80.88, 123.85 74.33 12/14/2019 18:00:59 -80.89, 123.72 74.35 2.66 43
5 12/14/2019 18:52:13 80.88, -68.75 105.68 12/14/2019 18:51:40 80.90, -68.86 105.67 2.74 33
6 12/14/2019 19:42:45 -80.89, 98.46 74.33 12/14/2019 19:42:20 -80.90, 98.58 74.32 2.77 25
7 12/14/2019 20:33:16 80.90, -94.52 105.66 12/14/2019 20:33:01 80.89, -94.36 105.65 3.22 15
8 12/14/2019 21:23:47 -80.89, 73.06 74.34 12/14/2019 21:23:41 -80.89, 73.08 74.34 0.33 6
9 12/14/2019 22:14:18 80.89,-119.56 105.67 12/14/2019 22:14:22 80.90,-119.50 105.68 1.12 4
10 12/14/2019 23:04:50 -80.90, 47.67 74.34 12/14/2019 23:05:03 -80.89, 47.58 74.35 2.19 13
11 12/14/2019 23:55:21 80.90,-144.96 105.67 12/14/2019 23:55:44 80.89,-145.01 105.66 1.35 23
12 12/15/2019 00:45:53 -80.91, 22.27 74.34 12/15/2019 00:46:24 -80.90, 22.44 74.33 3.16 31
13 12/15/2019 01:36:23 80.89,-170.00 105.68 12/15/2019 01:37:05 80.90,-170.15 105.69 2.89 42
14 12/15/2019 02:26:55 -80.90, -2.77 74.33 12/15/2019 02:27:45 -80.91, -2.71 74.30 1.55 50
15 12/15/2019 03:17:26 80.90, 164.60 105.68 12/15/2019 03:18:26 80.91, 164.71 105.72 2.51 60




NCC Satellite Simultaneous Nadir Overpasses (SNOs) Prediction Service
